Regional Weather Roundup
Issued by NWS Lake Charles, LA

Home | Current Version | Previous Version | Text Only | Print | Product List | Glossary On
Versions: 1 2 3 4 5 6 7 8 9 10 11 12 13 14 15 16 17 18 19 20 21 22 23 24 25 26 27 28 29 30 31 32 33 34 35 36 37 38 39 40 41 42 43 44 45 46 47 48 49 50
000
ASUS44 KLCH 150510
RWRLCH
REGIONAL WEATHER ROUNDUP
NATIONAL WEATHER SERVICE LAKE CHARLES LA
1100 PM CST THU DEC 14 2017

Note: "fair" indicates few or no clouds below 12,000 feet with no
significant weather and/or obstructions to visibility.


ACROSS SOUTHEAST TEXAS

CITY           SKY/WX    TMP DP  RH WIND       PRES   REMARKS
BEAUMONT       PTCLDY    52  45  77 N8        30.08R
BEAUMONT CITY  FAIR      51  45  79 N3        30.10R
ORANGE         CLOUDY    51  48  89 N5        30.11R
JASPER         CLOUDY    45  44  97 CALM      30.12S
$$

ACROSS CENTRAL LOUISIANA

CITY           SKY/WX    TMP DP  RH WIND       PRES   REMARKS
LEESVILLE      CLOUDY    46  42  86 N5        30.09R
FULLERTON      FAIR      44  42  93 CALM      30.08R
ALEXANDRIA INT PTCLDY    42  40  92 N6        30.09R
ESLER FIELD    MOCLDY    42  40  92 N3        30.09R
DERIDDER       FAIR      46  45  93 N3        30.12R
OAKDALE        MOCLDY    43  41  93 NW3       30.10R
OPELOUSAS      FAIR      48  41  76 N6        30.08R
$$

ACROSS SOUTHWEST AND SOUTH CENTRAL LOUISIANA

CITY           SKY/WX    TMP DP  RH WIND       PRES   REMARKS
SULPHUR        CLOUDY    51  46  80 N5        30.09R
LAKE CHARLES   PTCLDY    53  46  77 N8        30.08R
CHENNAULT INT  MOCLDY    51  45  82 N6        30.08R
CAMERON PHI    NOT AVBL
DEQUINCY       FAIR      48  44  85 N3        30.09S
JENNINGS       FAIR      51  47  86 N5        30.09R
LAFAYETTE      CLOUDY    54  50  86 N7        30.07R
NEW IBERIA     CLOUDY    52  48  86 N5        30.06R
ABBEVILLE      MOCLDY    50  50 100 N5        30.06R
PATTERSON      CLOUDY    53  51  93 CALM      30.06R
SALT POINT       N/A     54  51  90 CALM      30.04R
$$

SELECTED SITES ACROSS THE REGION

CITY           SKY/WX    TMP DP  RH WIND       PRES   REMARKS
HOUSTON BUSH   CLOUDY    53  45  74 N7        30.10R
HOUSTON HOBBY  CLOUDY    56  46  69 N10       30.09R
GALVESTON      CLOUDY    58  50  75 N14       30.08R
COLLEGE STAT   CLOUDY    53  31  42 N14       30.15R
CONROE         CLOUDY    51  42  71 N10G18    30.12R
HUNTSVILLE     CLOUDY    50  35  56 N5        30.14R
LUFKIN         CLOUDY    49  33  54 N8        30.14R
SHREVEPORT     PTCLDY    48  30  49 N13       30.14R
MONROE         CLOUDY    43  34  70 CALM      30.13R
NATCHEZ MS     MOCLDY    41  38  89 N5        30.09S
BATON ROUGE    CLOUDY    51  44  77 N7        30.05S
N.O. INTL ARPT CLOUDY    54  51  90 NW3       30.04R
SLIDELL        PTCLDY    46  44  93 CALM      30.04S
$$

MARINE REPORTS

STATION/POSITION TIME  SKY/WX   TEMP    WIND        PRES    VSBY
                                AIR SEA DIR/SP/G
                 (UTC)          (F)     (DEG/KT/KT) (MB)    (MI)
BUOY 30 S HIGH I 0350            60 60  350/ 12/ 12 1017.8
WVE H/P(F/S)=  1

SEA RIM ST PARK  0500            54      10/  7/  8 1018.7R
PORT ARTHUR      0448            54 58   10/  9/ 12 1018.7R
SABINE PASS N    0448            55 62   10/ 10/ 13 1019.9R
TEXAS POINT      NOT AVBL
CALCASIEU PASS   0448            57 60   10/  9/ 11 1017.1R
LK CHARLES BEACH 0448            52 58              1018.3R
MARSH ISLAND     0400            58                   N/A
FRESH WATER LOCK 0448            55 57   30/  2/  2 1017.2R
AMERADA PASS     0448            55 53     CALM     1017.0F
$$



USA.gov is the U.S. government's official web portal to all federal, state and local government web resources and services.